Regional Weather Roundup
Issued by NWS Northern Indiana

Home | Current Version | Previous Version | Text Only | Print | Product List | Glossary Off
Versions: 1 2 3 4 5 6 7 8 9 10 11 12 13 14 15 16 17 18 19 20 21 22 23 24 25 26 27 28 29 30 31 32 33 34 35 36 37 38 39 40 41 42 43 44 45 46 47 48 49 50

000
ASUS43 KIWX 030610
RWRIWX

KIWX WEATHER ROUNDUP
NATIONAL WEATHER SERVICE NORTHERN INDIANA
200 AM EDT THU SEP 03 2015

NOTE: "FAIR" INDICATES FEW OR NO CLOUDS BELOW 12,000 FEET WITH NO
SIGNIFICANT WEATHER AND/OR OBSTRUCTIONS TO VISIBILITY.

* THESE STATIONS ARE NOT UNDER NWS QUALITY CONTROL. THEY ALSO MAY NOT
  REPORT WEATHER SUCH AS PRECIPITATION OR FOG.

INZ001>027-030700-
NORTHERN INDIANA

CITY           SKY/WX    TMP DP  RH WIND       PRES   REMARKS
GARY*          FAIR      78  68  72 CALM      29.98S
VALPARAISO     FAIR      74  69  85 SW3       30.00S
6HR MIN TEMP:  73; 6HR MAX TEMP:  84;

MICHIGAN CITY* FAIR      73  66  78 S5        29.99S
LAPORTE*       FAIR     N/A N/A N/A CALM      30.00S
KNOX*          FAIR      72  70  94 S3        29.99S
SOUTH BEND     FAIR      74  68  81 SW6       30.00S
6HR MIN TEMP:  72; 6HR MAX TEMP:  82;

GOSHEN         FAIR      71  68  90 CALM      30.00S
6HR MIN TEMP:  70; 6HR MAX TEMP:  81; 6HR PCP: TRACE;

MONTICELLO*    FAIR      74  70  87 S5        30.00S
6HR MIN TEMP:  73; 6HR MAX TEMP:  83;

LOGANSPORT*    FAIR      68  64  88 S6        30.02S
ROCHESTER*     FAIR      77  70  78 S5        30.01F
WARSAW*        FAIR      72  68  88 CALM      30.01S
ANGOLA*        CLEAR     70  61  73 CALM      30.01R
FORT WAYNE     FAIR      72  68  87 S6        30.01F
6HR MIN TEMP:  72; 6HR MAX TEMP:  81;

HUNTINGTON*    FAIR      73  66  80 SW3       30.01S
6HR MIN TEMP:  70; 6HR MAX TEMP:  81;

PERU/GRISSOM   FAIR      71  68  90 SW5       30.00F
6HR MIN TEMP:  71; 6HR MAX TEMP:  81; 6HR PCP: TRACE;

MARION*        FAIR      67  62  82 S3        30.02F
6HR MIN TEMP:  49; 6HR MAX TEMP:  89;


$$
INZ028>050-030700-
CENTRAL INDIANA

CITY           SKY/WX    TMP DP  RH WIND       PRES   REMARKS
LAFAYETTE      FAIR      70  68  93 CALM      30.00F
6HR MIN TEMP:  70; 6HR MAX TEMP:  83;

KOKOMO*        FAIR      70  64  83 S5        30.02S
6HR MIN TEMP:  70; 6HR MAX TEMP:  82;

MUNCIE*        FAIR      71  67  87 SW5       30.03F
6HR MIN TEMP:  68; 6HR MAX TEMP:  80;

INDIANAPOLIS   FAIR      73  68  84 S3        30.02F
6HR MIN TEMP:  72; 6HR MAX TEMP:  82;


$$
MIZ043>046-050>051-056>058-064>065-071>073-077>080-030700-
SOUTHWEST LOWER MICHIGAN

CITY           SKY/WX    TMP DP  RH WIND       PRES   REMARKS
BATTLE CREEK   MOCLDY    74  69  85 SW3       30.00S
6HR MIN TEMP:  72; 6HR MAX TEMP:  82;

BENTON HARBOR  FAIR      70  68  93 CALM      29.98S
6HR MIN TEMP:  69; 6HR MAX TEMP:  83;

COLDWATER*     FAIR      68  68 100 CALM      30.00S FOG
6HR MIN TEMP:  68; 6HR MAX TEMP:  80;

HILLSDALE*     FAIR      69  69 100 CALM      30.01F FOG
HOLLAND        FAIR      68  65  90 CALM      29.99S
6HR MIN TEMP:  68; 6HR MAX TEMP:  79; 6HR PCP:  0.16;

GRAND RAPIDS   MOCLDY    75  70  84 SW10G21   29.99S
6HR MIN TEMP:  72; 6HR MAX TEMP:  81;

KALAMAZOO      FAIR      70  68  93 CALM      30.00S FOG
6HR MIN TEMP:  70; 6HR MAX TEMP:  82;

STURGIS*       FAIR      70  66  88 CALM      30.00S
THREE RIVERS*  FAIR      70  67  92 CALM      30.00S
6HR MIN TEMP:  70; 6HR MAX TEMP:  80;


$$
OHZ001>008-015>018-024>025-030700-
NORTHWEST OHIO

CITY           SKY/WX    TMP DP  RH WIND       PRES   REMARKS
WAUSEON*       FAIR      72  72 100 SW6       30.00S
DEFIANCE       FAIR      74  67  78 CALM      30.00F
6HR MIN TEMP:  70; 6HR MAX TEMP:  83;

FINDLAY        FAIR      70  65  84 SW5       29.99F
6HR MIN TEMP:  69; 6HR MAX TEMP:  79;

TOLEDO EXPRESS MOCLDY    73  69  87 SW3       29.98F
6HR MIN TEMP:  70; 6HR MAX TEMP:  79;

TOLEDO METCALF MOCLDY    73  68  84 SW8       29.99S
6HR MIN TEMP:  71; 6HR MAX TEMP:  81;

LIMA           FAIR      70  68  93 S8        30.01F
6HR MIN TEMP:  70; 6HR MAX TEMP:  81; 6HR PCP:  0.02;


$$
AND FOR LAKE MICHIGAN COASTAL AND OPEN LAKE BUOY OBSERVATIONS

STATION/POSITION TEMP    WIND        PRES    VSBY  WAVE
                 AIR SEA DIR/SP/G                  HT/PER
                 (F)     (DEG/KT/KT) (MB)    (MI)  (FT/S)
CALUMET HARBOR    78     190/  3/  4   N/A
MICHIGAN CITY     80     160/ 11/ 13   N/A
BURNS HARBOR      78     190/  8/ 11 1015.2
SAINT JOSEPH      76     130/  3/  7 1015.9R
SOUTH LAKE BUOY   74 71  220/  8/ 10 1014.0R         0
4 MI NW BRIDGMAN  75 74  230/  6/  8   N/A           0
MICHIGAN CITY     76 73  210/  6/  8   N/A           1

$$
&&


USA.gov is the U.S. government's official web portal to all federal, state and local government web resources and services.